Regional Weather Roundup
Issued by NWS

Home | Current Version | Previous Version | Text Only | Print | Product List | Glossary On
Versions: 1 2 3 4 5 6 7 8 9 10 11 12 13 14 15 16 17 18 19 20 21 22 23 24 25 26 27 28 29 30 31 32 33 34 35 36 37 38 39 40 41 42 43 44 45 46 47 48 49 50
000
ASUS44 KFWD 251010
RWRTX
NORTH TEXAS HOURLY WEATHER ROUNDUP
NATIONAL WEATHER SERVICE FORT WORTH TX
500 AM CDT MON MAY 25 2015

NOTE: "FAIR" INDICATES FEW OR NO CLOUDS BELOW 12,000 FEET WITH NO
SIGNIFICANT WEATHER AND/OR OBSTRUCTIONS TO VISIBILITY.

TXZ118-119-251100-
DALLAS/FORT WORTH METROPLEX

CITY           SKY/WX    TMP DP  RH WIND       PRES   REMARKS
DFW AIRPORT    CLOUDY    69  69 100 S10       29.86S
DALLAS LOVE    CLOUDY    71  68  90 S10       29.88R
FTW MEACHAM    CLOUDY    72  69  90 S14       29.86R
DAL-EXECUTIVE  CLOUDY    70  68  93 S5        29.88R
FTW-ALLIANCE   CLOUDY    70  69  97 S9        29.86R
FTW-NAS-JRB    CLOUDY    72  69  90 S10       29.86S
FTW-SPINKS     CLOUDY    71  69  92 S10       29.88S FOG
ARLINGTON      CLOUDY    72  67  84 S7        29.87R
GRAND PRAIRIE  CLOUDY    70  70 100 S8        29.88S
ADDISON        CLOUDY    72  72 100 S13       29.89S
MESQUITE       MOCLDY    69  68  98 SE9       29.89S
LANCASTER      MOCLDY    68  66  93 SE6       29.89S
$$

TXZ091>094-102>105-117-120-121-131>134-251100-
NORTH CENTRAL TEXAS

CITY           SKY/WX    TMP DP  RH WIND       PRES   REMARKS
SHRMAN/DENISON CLEAR     70  69  98 S10       29.88S
GAINESVILLE    CLOUDY    68  67  98 SE7       29.88S
BOWIE          CLOUDY    67  67 100 SE9       29.85S
BRIDGEPORT     MOCLDY    70  70 100 S7        29.87R
DECATUR        CLOUDY    68  67  98 S13       29.87R
DENTON         CLOUDY    70  68  93 S12       29.86S
MCKINNEY       CLOUDY    71  69  93 S12       29.89R
GREENVILLE     CLOUDY    72  68  88 SE7       29.91R
ROCKWALL       CLOUDY    70  69  97 S10       29.88S
TERRELL        MOCLDY    70  68  93 S10       29.90R
WAXAHACHIE     CLOUDY    69  69 100 S7        29.90R
CLEBURNE       CLOUDY    72  72 100 S10       29.89S
GRANBURY       CLOUDY    73  69  87 SE8       29.87S
$$

TXZ083>090-098>101-113>116-127>130-139>142-154-155-251100-
WESTERN NORTH TEXAS

CITY           SKY/WX    TMP DP  RH WIND       PRES   REMARKS
WICHITA FALLS  PTCLDY    67  66  97 S12       29.82R
WF-KICKAPOO    CLEAR     69  67  93 SE8       29.83R
VERNON         PTCLDY    67  63  84 S9        29.81S
ABILENE        CLOUDY    69  66  90 S16G24    29.84R
ABILENE-DYESS  CLOUDY    68  63  83 S14G22    29.83R
BRECKENRIDGE   CLOUDY    72  69  90 S13G20    29.84R
GRAHAM         MOCLDY    69  68  97 S6        29.83R
MINERAL WELLS  CLOUDY    70  68  93 S8        29.84S
STEPHENVILLE   CLEAR     69  66  90 S7        29.89R
COMANCHE       MOCLDY    69  69 100 S8        29.87S
BROWNWOOD      MOCLDY    68  68 100 SE9       29.87R
COLEMAN        MOCLDY    68  68 100 S8        29.87R
BRADY          MOCLDY    68  68 100 SE8       29.87R
$$

TXZ143>147-156>162-174-175-251100-
CENTRAL TEXAS

CITY           SKY/WX    TMP DP  RH WIND       PRES   REMARKS
WACO           LGT RAIN  70  68  93 SE10      29.89R
WACO-MCGREGOR  CLOUDY    72  64  78 S12       29.89S
HILLSBORO      CLOUDY    70  67  91 S10G17    29.89S
CORSICANA      CLOUDY    70  68  93 S14       29.91S
MEXIA          CLOUDY    69  68  97 SE10      29.90R
HEARNE         CLOUDY    71  69  96 SE7       29.92R
CAMERON        CLOUDY    72  70  93 S7        29.89S
TEMPLE         CLOUDY    70  66  88 S13       29.88S
KILLEEN        CLOUDY    72  70  93 S13       29.86F
KILLEEN-SKYLRK CLOUDY    72  66  83 S10G18    29.88S
FORT HOOD      CLOUDY    72  69  92 S14G20    29.86S
GATESVILLE     MOCLDY    72  70  94 S5        29.89F
HAMILTON       MOCLDY    70  70 100 S14       29.88S
LAMPASAS       CLOUDY    73  70  91 S7        29.87R
$$

TXZ095>097-106>112-122>126-135>138-148>153-164>167-251100-
EAST TEXAS

CITY           SKY/WX    TMP DP  RH WIND       PRES   REMARKS
PARIS          CLOUDY    70  64  83 SE9       29.92S
SULPHUR SPRNGS CLOUDY    72  69  93 S6        29.94S
MOUNT PLEASANT CLOUDY    70  69  97 SE3       29.95S
GILMER         CLOUDY    69  68  96 SE6       29.94S
MINEOLA        CLOUDY    72  72 100 SE3       29.93S
TYLER          CLOUDY    71  68  90 S9        29.93R
LONGVIEW       CLOUDY    71  68  90 S7        29.94R
MARSHALL       CLOUDY    73  71  91 S7        29.97S
ATHENS         CLOUDY    68  68 100 S9        29.91R
PALESTINE      CLOUDY    71  70  98 SE7       29.94R FOG
JACKSONVILLE   CLOUDY    70  69  95 S12       29.96S
HENDERSON      CLOUDY    70  69  95 S6        29.96R
NACOGDOCHES    CLOUDY    70  66  88 SE5       29.95S
LUFKIN         FOG       71  67  87 SE5       29.95R VSB 3/4
$$

SUPPLEMENTAL OBSERVATIONS (CENTRAL)

CITY           SKY/WX    TMP DP  RH WIND       PRES   REMARKS
CADDO GRASSLND   N/A     72  66  83 S5          N/A
MCGREGOR         N/A     72  70  94 S13         N/A
TEMPLE           N/A     70  68  94 SE8         N/A
$$

SUPPLEMENTAL OBSERVATIONS (WEST)

CITY           SKY/WX    TMP DP  RH WIND       PRES   REMARKS
MILLERS CREEK    N/A     66  63  88 S8          N/A
POSSUM KINGDOM   N/A     70  64  83 S7G15       N/A
LBJ GRASSLAND    N/A     70  66  88 S9          N/A
GRANBURY         N/A     73  70  88 SE9         N/A
HAMBY            N/A     68  63  83 S14         N/A
IVIE RESERVOIR   N/A     68  66  94 E6          N/A
COLORADO BEND    N/A     72  68  88 SW9G18      N/A
$$

SUPPLEMENTAL OBSERVATIONS (EAST)

CITY           SKY/WX    TMP DP  RH WIND       PRES   REMARKS
N SABINE NF      N/A     70  68  94 MISG        N/A
$$

SUPPLEMENTAL OBSERVATIONS ARE A COLLECTION OF AUTOMATED INSTRUMENTS
THAT ARE MAINTAINED BY A VARIETY OF FEDERAL AND STATE AGENCIES.
CERTAIN ELEMENTS...SUCH AS HUMIDITY VALUES AND SUSTAINED WIND
SPEEDS...MAY BE APPROXIMATED.




USA.gov is the U.S. government's official web portal to all federal, state and local government web resources and services.